METEOSAT 2 AKM (MAGE 1), 20837

Orbit data source: Space-Track

METEOSAT 2 AKM (MAGE 1), 20837 is space debris in GEO originally from a launch on Fri, 19 Jun 1981 UTC launched from the French Guiana (FRGUI). Debris objects in space refer to the collection of defunct objects orbiting the Earth. Examples of debris include non-operational satellites, rocket bodies, and fragments generated from explosions, collisions, or faulty payload assembly.

Loading next visibility...
Identifier
20837, 1981-057F
Orbit
GEO
Country
Flag of ESAESA
Related business
Manufacturer
SEP
Mission
Spacecraft
Bus & Motor
MAGE, Unknown motor
Mass
359 kg wet, 70 kg dry
Launch date (UTC)
1981-06-19 (44 years ago)
Launch vehicle
Unknown
Launch site
French Guiana (FRGUI)
Object type
Payload
Rocket body
Debris
Shape & HBR
Unknown
Radar Cross Section
Large (>1 m²)

Expand to show TLE details & history
Last TLE update: 13 hours ago

TLE from 13 hours ago
0 METEOSAT 2 AKM (MAGE 1)
1 20837U 81057F   25307.95094221 -.00000166  00000-0  00000-0 0  9994
2 20837   8.0932 300.2525 0074689 206.8633 167.6490  0.99363216117161
Epoch: 2025-11-03T22:49Z
TLE epoch observation values (Epoch: 2025-11-03T22:49:21.406Z)
Latitude
2.06716°
Longitude
-71.01525°
Altitude
36,350.583 km
Speed
3.043 km/s
True Right ascension
20h 59m 04s
True Declination
2° 03' 54"
Sunlit
Object was in daylight at epoch
Visualization orbit readout
Latitude
Unknown
Longitude
Unknown
Altitude
Unknown
Speed
Unknown
Apparent Right ascension
Unknown
Apparent Declination
Unknown
Sunlit
N/A
Visualization observer readout
Local Sidereal Time
08:03:57
Azimuth
Unknown
Elevation
Unknown
Doppler factor
Unknown
Orbital elements
Apogee altitude
36,361.121 km
Perigee altitude
35,727.423 km
Semi-major axis
42,422.409 km
Eccentricity
0.00747
Inclination
8.0932°
RAAN
300.2525°
Arg. of periapsis
206.8633°
True anomaly
167.83042°
Mean anomaly
167.649°
Eccentric anomaly
167.73987°
Mean motion
0.2484 °/min
Orbital period
1,449.28 mins
BSTAR
0
Loading maneuver chart data...
Computing Atmospheric mass density...
Loading historical data...
Loading historical data...
Loading historical data...
Loading historical data...
Loading historical data...
Loading historical data...
Loading historical data...

Documentation

Showing up to 5 results
|